(362739) = 2003 WT37 = 2011 UO307

Discovered at Socorro on 2003-11-19 by LINEAR.

Orbit

Orbit type: Main Belt

Note: WebGL enabled browser required.

epoch2023-09-13.0
epoch JD2460200.5
perihelion date2020-05-04.36748
perihelion JD2458973.86748
argument of perihelion (°)149.48798
ascending node (°)310.58552
inclination (°)6.40594
eccentricity0.1298391
perihelion distance (AU)2.2054944
Tisserand w.r.t. Jupiter3.4
ΔV w.r.t. Earth (km/sec)9.5
semimajor axis (AU)2.5345823
mean anomaly (°)299.61166
mean daily motion (°/day)0.24425540
aphelion distance (AU)2.864
period (years)4.04
P-vector [x]-0.17731880
P-vector [y]0.87891318
P-vector [z]0.44279755
Q-vector [x]-0.98049915
Q-vector [y]-0.11903227
Q-vector [z]-0.15637372
absolute magnitude16.93
phase slope0.15
uncertainty0
referenceMPEC 2023-X62
observations used317
oppositions13
arc length (days)7320
first opposition used2003
last opposition used2023
residual rms (arc-secs)0.74
perturbers coarse indicatorM-v
perturbers precise indicator003Ek
first observation date used2003-11-19.0
last observation date used2023-12-04.0
computer nameMPCLINUX
JD of orbit computation2456877.710273
perihelion JD uncertainty (days)2.2920E-04
argument of perihelion uncertainty (°)1.2153E-04
ascending node uncertainty (°)1.1185E-04
inclination uncertainty (°)8.4332E-06
eccentricity uncertainty 1.0656E-07
perihelion distance uncertainty (AU)2.6725E-07
Minimum Orbit Intersection Distances (in AU)
for orbit epoch: 2460200.5, reference: E2023-X62
Mercury1.89232
Venus1.4869
Earth1.22371
Mars0.58665
Jupiter2.27139
Saturn6.85356
Uranus16.0262
Neptune27.3081

Observations

321 total observations over interval: 2003 11 19.25975 – 2023 12 04.253976
These data are available for download (format description).

Date (UT) J2000 RA J2000 Dec Magn Location Ref
2003 11 19.25975 04 04 51.23 +31 35 26.9 19.7   704 – Lincoln Laboratory ETS, New Mexico MPS 92009
2003 11 19.27232 04 04 50.37 +31 35 24.2 20.1   704 – Lincoln Laboratory ETS, New Mexico MPS 92009
2003 11 19.29741 04 04 48.56 +31 35 21.3 19.9   704 – Lincoln Laboratory ETS, New Mexico MPS 92009
2003 11 20.26436 04 03 46.76 +31 32 25.2 19.5   704 – Lincoln Laboratory ETS, New Mexico MPS 92009
2003 11 20.27689 04 03 45.82 +31 32 21.6 19.9   704 – Lincoln Laboratory ETS, New Mexico MPS 92009
2003 11 20.28936 04 03 45.05 +31 32 20.8 19.9   704 – Lincoln Laboratory ETS, New Mexico MPS 92009
2003 11 20.30188 04 03 44.18 +31 32 18.3 19.6   704 – Lincoln Laboratory ETS, New Mexico MPS 92009
2003 11 24.19965 03 59 30.89 +31 18 34.5 19.3   704 – Lincoln Laboratory ETS, New Mexico MPS 92009
2003 11 24.20761 03 59 30.37 +31 18 32.6 19.4   704 – Lincoln Laboratory ETS, New Mexico MPS 92009
2003 11 24.22342 03 59 29.38 +31 18 28.5 19.5   704 – Lincoln Laboratory ETS, New Mexico MPS 92009
2003 12 18.17544 03 36 50.94 +29 08 19.4 20.4 V 691 – Steward Observatory, Kitt Peak-Spacewatch MPS 404259
2003 12 18.20267 03 36 49.78 +29 08 09.6 20.8 V 691 – Steward Observatory, Kitt Peak-Spacewatch MPS 404259
2003 12 18.23415 03 36 48.44 +29 07 57.5 20.2 V 691 – Steward Observatory, Kitt Peak-Spacewatch MPS 404259
2007 11 15.31407 03 41 30.44 +30 45 39.6 19.5 V G96 – Mt. Lemmon Survey MPS 404259
2007 11 15.31851 03 41 30.15 +30 45 38.6 19.4 V G96 – Mt. Lemmon Survey MPS 404259
2007 11 15.32288 03 41 29.86 +30 45 37.9 19.3 V G96 – Mt. Lemmon Survey MPS 404259
2007 11 15.32728 03 41 29.58 +30 45 37.0 19.2 V G96 – Mt. Lemmon Survey MPS 404259
2010 07 07.34433 20 31 05.05 -21 11 49.8 20.9 V G96 – Mt. Lemmon Survey MPS 439689
2010 07 07.35113 20 31 04.65 -21 11 50.1 21.0 V G96 – Mt. Lemmon Survey MPS 439689
2010 07 07.35795 20 31 04.33 -21 11 51.1 20.6 V G96 – Mt. Lemmon Survey MPS 439689
2010 07 07.36481 20 31 03.93 -21 11 52.0 20.6 V G96 – Mt. Lemmon Survey MPS 439689
2011 10 27.75214 03 34 53.67 +30 16 02.5 19.8 R C32 – Ka-Dar Observatory, TAU Station, Nizhny Arkhyz MPS 398656
2011 10 27.75446 03 34 53.54 +30 16 02.2 19.8 R C32 – Ka-Dar Observatory, TAU Station, Nizhny Arkhyz MPS 398656
2011 10 27.76403 03 34 53.08 +30 16 01.8 19.6 R C32 – Ka-Dar Observatory, TAU Station, Nizhny Arkhyz MPS 398656
2011 10 27.77362 03 34 52.65 +30 16 01.7 19.6 R C32 – Ka-Dar Observatory, TAU Station, Nizhny Arkhyz MPS 398656
2011 10 28.31856 03 34 26.04 +30 15 48.1 20.0 V 703 – Catalina Sky Survey MPS 398656
2011 10 28.32718 03 34 25.78 +30 15 47.8 20.0 V 703 – Catalina Sky Survey MPS 398656
2011 10 28.33587 03 34 25.32 +30 15 48.2 19.7 V 703 – Catalina Sky Survey MPS 398656
2011 10 28.34450 03 34 24.88 +30 15 48.7 19.8 V 703 – Catalina Sky Survey MPS 398656
2011 11 03.41752 03 29 02.72 +30 08 31.4 19.5 V G96 – Mt. Lemmon Survey MPS 398656
2011 11 03.42609 03 29 02.18 +30 08 30.4 19.7 V G96 – Mt. Lemmon Survey MPS 398656
2011 11 03.43484 03 29 01.75 +30 08 29.4 19.3 V G96 – Mt. Lemmon Survey MPS 398656
2011 11 03.44356 03 29 01.21 +30 08 28.5 19.4 V G96 – Mt. Lemmon Survey MPS 398656
2011 11 18.22679 03 13 50.26 +29 19 05.0 18.7 V 703 – Catalina Sky Survey MPS 403907
2011 11 18.23191 03 13 49.80 +29 19 02.7 19.1 V 703 – Catalina Sky Survey MPS 403907
2011 11 18.23704 03 13 49.58 +29 19 01.6 19.0 V 703 – Catalina Sky Survey MPS 403907
2011 11 18.24205 03 13 49.26 +29 18 59.7 19.2 V 703 – Catalina Sky Survey MPS 403907
2011 11 27.29918 03 04 41.16 +28 30 18.3 19.7 V 703 – Catalina Sky Survey MPS 403907
2011 11 27.30493 03 04 40.76 +28 30 16.2 19.3 V 703 – Catalina Sky Survey MPS 403907
2011 11 27.31076 03 04 40.44 +28 30 12.8 19.3 V 703 – Catalina Sky Survey MPS 403907
2011 11 27.31656 03 04 40.08 +28 30 10.8 19.4 V 703 – Catalina Sky Survey MPS 403907
2011 11 29.18248 03 02 57.01 +28 19 01.9 19.6 V G96 – Mt. Lemmon Survey MPS 403907
2011 11 29.18824 03 02 56.68 +28 18 59.9 19.6 V G96 – Mt. Lemmon Survey MPS 403907
2011 11 29.19407 03 02 56.40 +28 18 57.8 19.7 V G96 – Mt. Lemmon Survey MPS 403907
2011 11 29.19984 03 02 56.04 +28 18 55.6 19.8 V G96 – Mt. Lemmon Survey MPS 403907
2013 03 05.30101 13 45 30.87 -19 52 05.2 19.9 J W91 – VHS-VISTA, Cerro Paranal MPS 678757
2013 03 05.30601 13 45 30.76 -19 52 06.0 20.6 Y W91 – VHS-VISTA, Cerro Paranal MPS 678757
2013 03 05.34086 13 45 30.01 -19 52 10.7 19.8 J W91 – VHS-VISTA, Cerro Paranal MPS 678757
2013 03 05.34531 13 45 29.92 -19 52 11.2 19.8 Y W91 – VHS-VISTA, Cerro Paranal MPS 678757
2013 03 05.34895 13 45 29.85 -19 52 11.7 19.7 Y W91 – VHS-VISTA, Cerro Paranal MPS 678757
2013 03 07.63083 13 44 41.42 -19 56 50.4 20.5 V Q62 – iTelescope Observatory, Siding Spring MPS 457522
2013 03 07.64975 13 44 40.91 -19 56 52.9 20.5 V Q62 – iTelescope Observatory, Siding Spring MPS 457522
2013 03 07.66887 13 44 40.43 -19 56 55.1 20.5 V Q62 – iTelescope Observatory, Siding Spring MPS 457522
2013 04 09.44754 13 20 00.191 -19 13 06.95 20.4 w F51 – Pan-STARRS 1, Haleakala MPS 462785
2013 04 09.47691 13 19 58.426 -19 12 59.36 20.1 w F51 – Pan-STARRS 1, Haleakala MPS 462785
2013 04 09.49153 13 19 57.552 -19 12 55.47 20.0 w F51 – Pan-STARRS 1, Haleakala MPS 462785
2014 07 25.42529 19 59 04.979 -22 41 50.52 20.6 w F51 – Pan-STARRS 1, Haleakala MPS 525441
2014 07 25.43727 19 59 04.232 -22 41 51.02 20.5 w F51 – Pan-STARRS 1, Haleakala MPS 525441
2014 07 25.44928 19 59 03.473 -22 41 51.70 20.4 w F51 – Pan-STARRS 1, Haleakala MPS 525441
2014 07 25.46125 19 59 02.714 -22 41 52.22 20.5 w F51 – Pan-STARRS 1, Haleakala MPS 525441
2015 10 20.70804 03 14 23.90 +29 02 12.9 19.9 R D29 – Purple Mountain Observatory, XuYi Station MPS 641519
2015 10 20.72303 03 14 23.18 +29 02 13.2 20.3 R D29 – Purple Mountain Observatory, XuYi Station MPS 641519
2015 10 20.73803 03 14 22.52 +29 02 13.1 20.2 R D29 – Purple Mountain Observatory, XuYi Station MPS 641519
2015 10 23.45512 03 12 15.78 +29 01 09.7 19.4 V 703 – Catalina Sky Survey MPS 641519
2015 11 01.30885 03 04 16.38 +28 47 01.8 19.5 V G96 – Mt. Lemmon Survey MPS 645095
2015 11 01.31331 03 04 16.08 +28 47 01.1 19.8 V G96 – Mt. Lemmon Survey MPS 645095
2015 11 01.31778 03 04 15.82 +28 47 00.3 19.9 V G96 – Mt. Lemmon Survey MPS 645095
2015 11 01.32223 03 04 15.54 +28 46 59.7 19.8 V G96 – Mt. Lemmon Survey MPS 645095
2015 11 03.68638 03 01 54.15 +28 40 23.4 20.4 R D29 – Purple Mountain Observatory, XuYi Station MPS 645095
2015 11 03.71703 03 01 52.26 +28 40 17.6 19.3 R D29 – Purple Mountain Observatory, XuYi Station MPS 645095
2015 11 06.23890 02 59 17.81 +28 31 58.0 20.0 V 703 – Catalina Sky Survey MPS 645095
2015 11 06.24290 02 59 17.48 +28 31 56.4 20.2 V 703 – Catalina Sky Survey MPS 645095
2015 11 06.24690 02 59 17.32 +28 31 55.1 19.4 V 703 – Catalina Sky Survey MPS 645095
2015 11 06.25092 02 59 17.01 +28 31 55.5 20.3 V 703 – Catalina Sky Survey MPS 645095
2015 11 09.27420 02 56 08.44 +28 20 16.1 19.7 V G96 – Mt. Lemmon Survey MPS 650298
2015 11 09.28090 02 56 08.01 +28 20 14.4 19.7 V G96 – Mt. Lemmon Survey MPS 650298
2015 11 09.28760 02 56 07.57 +28 20 12.8 19.7 V G96 – Mt. Lemmon Survey MPS 650298
2015 11 09.29435 02 56 07.13 +28 20 11.1 19.6 V G96 – Mt. Lemmon Survey MPS 650298
2015 11 12.26596 02 53 01.03 +28 07 03.1 20.1 r G45 – Space Surveillance Telescope, Atom Site MPS 650298
2015 11 12.26606 02 53 01.01 +28 07 03.8 19.9 r G45 – Space Surveillance Telescope, Atom Site MPS 650298
2015 11 12.27159 02 53 00.64 +28 07 01.8 20.2 r G45 – Space Surveillance Telescope, Atom Site MPS 650298
2015 11 12.27324 02 53 00.54 +28 07 02.1 20.1 r G45 – Space Surveillance Telescope, Atom Site MPS 650298
2015 11 12.27607 02 53 00.36 +28 07 01.2 20.6 r G45 – Space Surveillance Telescope, Atom Site MPS 650298
2015 11 12.27843 02 53 00.20 +28 07 00.6 20.0 r G45 – Space Surveillance Telescope, Atom Site MPS 650298
2015 11 30.40442 02 36 13.662 +26 22 55.92 19.6 r F51 – Pan-STARRS 1, Haleakala MPS 656986
2015 11 30.41696 02 36 13.062 +26 22 51.20 19.7 r F51 – Pan-STARRS 1, Haleakala MPS 656986
2015 11 30.42926 02 36 12.498 +26 22 46.26 19.9 r F51 – Pan-STARRS 1, Haleakala MPS 656986
2015 11 30.44157 02 36 11.911 +26 22 41.45 20.0 r F51 – Pan-STARRS 1, Haleakala MPS 656986
